TimeMDT,TemperatureF,Dew PointF,Humidity,Sea Level PressureIn,VisibilityMPH,Wind Direction,Wind SpeedMPH,Gust SpeedMPH,PrecipitationIn,Events,Conditions,WindDirDegrees,DateUTC
12:53 AM,55.9,51.1,84,29.86,10.0,SSE,10.4,-,N/A,,Clear,150,2013-09-17 06:53:00
1:53 AM,55.0,51.1,86,29.85,10.0,SSE,10.4,-,N/A,,Clear,150,2013-09-17 07:53:00
2:53 AM,55.0,51.1,86,29.83,10.0,SSE,8.1,-,N/A,,Clear,150,2013-09-17 08:53:00
3:53 AM,54.0,51.1,90,29.82,10.0,SSE,8.1,-,N/A,,Clear,150,2013-09-17 09:53:00
4:53 AM,54.0,51.1,90,29.81,10.0,SSE,6.9,-,N/A,,Clear,150,2013-09-17 10:53:00
5:53 AM,53.1,51.1,93,29.80,10.0,SSE,5.8,-,N/A,,Clear,160,2013-09-17 11:53:00
6:53 AM,52.0,50.0,93,29.81,9.0,South,5.8,-,N/A,,Clear,170,2013-09-17 12:53:00
7:53 AM,55.0,52.0,89,29.81,10.0,South,6.9,-,N/A,,Clear,170,2013-09-17 13:53:00
8:53 AM,59.0,54.0,83,29.80,10.0,SSE,5.8,-,N/A,,Clear,160,2013-09-17 14:53:00
9:53 AM,64.9,55.9,73,29.78,10.0,Variable,5.8,-,N/A,,Clear,0,2013-09-17 15:53:00
10:53 AM,70.0,57.0,63,29.76,10.0,SE,5.8,-,N/A,,Clear,130,2013-09-17 16:53:00
11:53 AM,75.0,59.0,57,29.75,10.0,SSE,6.9,-,N/A,,Clear,150,2013-09-17 17:53:00
12:53 PM,79.0,59.0,50,29.73,10.0,SE,10.4,-,N/A,,Clear,140,2013-09-17 18:53:00
1:53 PM,81.0,59.0,47,29.70,10.0,SSE,10.4,-,N/A,,Clear,160,2013-09-17 19:53:00
2:53 PM,82.9,60.1,46,29.68,10.0,South,10.4,-,N/A,,Clear,170,2013-09-17 20:53:00
3:53 PM,82.0,57.9,44,29.67,10.0,SSE,10.4,-,N/A,,Clear,150,2013-09-17 21:53:00
4:53 PM,81.0,59.0,47,29.66,10.0,SE,10.4,-,N/A,,Clear,140,2013-09-17 22:53:00
5:53 PM,79.0,60.1,52,29.65,10.0,ESE,8.1,-,N/A,,Clear,120,2013-09-17 23:53:00
6:53 PM,73.0,60.1,64,29.65,10.0,ESE,9.2,-,N/A,,Clear,120,2013-09-18 00:53:00
7:53 PM,72.0,59.0,64,29.65,10.0,ESE,13.8,-,N/A,,Clear,120,2013-09-18 01:53:00
8:53 PM,68.0,60.1,76,29.64,10.0,East,12.7,-,N/A,,Clear,100,2013-09-18 02:53:00
9:53 PM,66.9,59.0,76,29.63,10.0,East,9.2,-,N/A,,Clear,100,2013-09-18 03:53:00
10:08 PM,66.2,59.0,78,29.67,10.0,ESE,9.2,-,N/A,Thunderstorm,Scattered Clouds,120,2013-09-18 04:08:00
10:53 PM,70.0,57.9,65,29.60,10.0,ESE,10.4,34.5,0.00,Rain,Light Rain,120,2013-09-18 04:53:00
11:33 PM,69.8,57.2,64,29.66,10.0,SE,15.0,-,0.01,Rain-Thunderstorm,Light Rain,140,2013-09-18 05:33:00
11:53 PM,68.0,60.1,76,29.65,10.0,SSW,9.2,-,0.01,Thunderstorm,Thunderstorm,210,2013-09-18 05:53:00